Location: Kerguer�zec
(48.4509°N, 4.7600°W)
Time: 07:16:27
(UTC+00:00)

MOS 1 Rocket - Pass Details

Date: 09 April 2020
Orbit: 614 x 830 km, 97.4° (Epoch: 03 June)

Event Time Altitude Azimuth Distance (km) Brightness Sun altitude
Rises 20:53:29 0° 11° (N) 3,346 7.1 -17.6°
Reaches altitude 10° 20:55:49 10° 10° (N) 2,426 6.4 -17.9°
Maximum altitude 21:01:15 76° 286° (WNW) 860 3.8 -18.7°
Drops below altitude 10° 21:06:40 10° 201° (SSW) 2,428 5.9 -19.4°
Sets 21:09:00 0° 200° (SSW) 3,347 6.6 -19.7°
